FW6667 Weather Reports


time (UTC)temp
F
wind
direction
speed
knots
gust
knots
rain 1hr
in
rain 24hr
in
rain mn
in
humidity
%
barometer
mb
20260505171011 77 159 0.9 1.7 0.00 0.00 0.00 39 1013.5
20260505170010 78 158 1.7 2.6 0.00 0.00 0.00 34 1013.5
20260505164011 79 163 2.6 4.3 0.00 0.00 0.00 34 1013.5
20260505162011 81 155 2.6 4.3 0.00 0.00 0.00 31 1013.5
20260505153010 81 160 0.9 0.9 0.00 0.00 0.00 31 1013.5
20260505152011 81 162 0.0 2.6 0.00 0.00 0.00 28 1013.9
20260505151009 81 166 1.7 2.6 0.00 0.00 0.00 28 1013.9
20260505125012 83 163 0.0 5.2 0.00 0.00 0.00 29 1015.2
20260505124010 82 171 1.7 4.3 0.00 0.00 0.00 28 1015.2
20260505123009 82 150 2.6 5.2 0.00 0.00 0.00 29 1015.4
20260505122011 82 157 0.9 4.3 0.00 0.00 0.00 28 1015.6
20260505121009 81 168 2.6 7.0 0.00 0.00 0.00 26 1015.6
20260505120010 81 176 1.7 4.3 0.00 0.00 0.00 29 1015.9
20260505115008 80 172 0.9 4.3 0.00 0.00 0.00 31 1015.9
20260505114010 80 162 0.9 5.2 0.00 0.00 0.00 32 1016.1
20260505113009 80 205 1.7 2.6 0.00 0.00 0.00 30 1016.3
20260505112010 79 159 1.7 2.6 0.00 0.00 0.00 32 1016.6
20260505111008 79 163 1.7 5.2 0.00 0.00 0.00 33 1016.5
20260505101009 77 177 1.7 4.3 0.00 0.00 0.00 36 1017.3
20260505100013 76 184 1.7 4.3 0.00 0.00 0.00 38 1017.3
20260505095010 77 173 0.9 2.6 0.00 0.00 0.00 38 1017.3
20260505094011 76 158 1.7 2.6 0.00 0.00 0.00 38 1017.3
20260505093011 76 198 1.7 2.6 0.00 0.00 0.00 39 1017.4
20260505092018 75 173 1.7 4.3 0.00 0.00 0.00 40 1017.6
20260505090009 75 173 1.7 5.2 0.00 0.00 0.00 40 1017.6
20260505085011 74 191 2.6 5.2 0.00 0.00 0.00 40 1017.9
20260505083011 74 187 2.6 4.3 0.00 0.00 0.00 40 1017.9
20260505082010 72 192 2.6 5.2 0.00 0.00 0.00 42 1017.9
20260505081010 72 146 1.7 4.3 0.00 0.00 0.00 42 1017.9
20260505080009 72 185 0.9 2.6 0.00 0.00 0.00 44 1018.1
20260505075009 71 183 1.7 4.3 0.00 0.00 0.00 44 1017.9
20260505073010 68 144 0.9 1.7 0.00 0.00 0.00 46 1018.3
20260505071017 68 160 0.0 0.9 0.00 0.00 0.00 49 1018.3
20260505070011 65 163 0.0 1.7 0.00 0.00 0.00 52 1018.3
20260505065010 63 169 0.0 1.7 0.00 0.00 0.00 54 1018.3
20260505064012 62 172 0.9 1.7 0.00 0.00 0.00 56 1018.3
20260505063019 60 175 1.7 2.6 0.00 0.00 0.00 59 1018.1
20260505062110 60 181 1.7 2.6 0.00 0.00 0.00 59 1018.3
20260505061009 58 159 0.0 2.6 0.00 0.00 0.00 62 1017.9
20260505060010 58 178 0.9 2.6 0.00 0.00 0.00 64 1017.9
20260505055010 57 178 1.7 1.7 0.00 0.00 0.00 65 1018.3
20260505052015 54 165 0.0 2.6 0.00 0.00 0.00 69 1018.1
20260505051010 53 181 1.7 1.7 0.00 0.00 0.00 69 1018.3
20260505041041 43 155 0.0 0.0 0.00 0.00 0.00 90 1017.9
20260505040009 42 155 0.0 0.0 0.00 0.00 0.00 92 1017.9
20260505035010 41 155 0.0 0.0 0.00 0.00 0.00 92 1017.6
20260505034010 41 155 0.0 0.0 0.00 0.00 0.00 92 1017.9
20260505033010 41 155 0.0 0.0 0.00 0.00 0.00 93 1017.7
20260505031008 41 155 0.0 0.0 0.00 0.00 0.00 92 1017.6
20260505025012 41 155 0.0 0.0 0.00 0.00 0.00 94 1017.9
20260505024010 42 155 0.0 0.0 0.00 0.00 0.00 93 1017.6
20260505023010 42 155 0.0 0.0 0.00 0.00 0.00 93 1017.9
20260505022011 42 155 0.0 0.0 0.00 0.00 0.00 91 1017.8
20260505021012 42 155 0.0 0.0 0.00 0.00 0.00 90 1017.6
20260505020013 43 155 0.0 0.0 0.00 0.00 0.00 90 1017.9
20260505011009 44 155 0.0 0.0 0.00 0.00 0.00 89 1017.6
20260505010009 44 155 0.0 0.0 0.00 0.00 0.00 84 1017.9
20260505004009 46 155 0.0 0.0 0.00 0.00 0.00 83 1017.9
20260505003010 47 155 0.0 0.0 0.00 0.00 0.00 80 1017.9
20260505002010 47 155 0.0 0.9 0.00 0.00 0.00 80 1017.9
20260505001009 48 155 0.0 0.9 0.00 0.00 0.00 75 1017.9
20260505000010 48 154 0.0 0.0 0.00 0.00 0.00 75 1017.9
20260504235012 48 155 0.0 0.9 0.00 0.00 0.00 75 1017.9
20260504234009 48 156 0.0 1.7 0.00 0.00 0.00 77 1018.2
20260504233010 47 144 0.9 0.9 0.00 0.00 0.00 81 1018.6
20260504232010 47 161 0.0 0.0 0.00 0.00 0.00 84 1018.4
20260504231010 48 162 0.0 0.9 0.00 0.00 0.00 78 1018.3
20260504230010 50 162 0.0 0.9 0.00 0.00 0.00 76 1018.4
20260504225008 51 153 0.9 0.9 0.00 0.00 0.00 68 1018.6
20260504224009 52 149 0.0 0.9 0.00 0.00 0.00 66 1018.3
20260504223012 52 149 0.0 0.0 0.00 0.00 0.00 65 1018.3
20260504220013 52 155 0.0 0.0 0.00 0.00 0.00 66 1018.6
20260504215008 52 156 0.0 0.0 0.00 0.00 0.00 69 1018.6
20260504214008 52 156 0.0 0.0 0.00 0.00 0.00 69 1018.6
20260504213009 52 156 0.0 0.9 0.00 0.00 0.00 69 1018.6
20260504212010 51 156 0.0 0.0 0.00 0.00 0.00 71 1018.6
20260504211009 51 156 0.0 0.0 0.00 0.00 0.00 71 1018.6
20260504205010 53 156 0.0 0.9 0.00 0.00 0.00 72 1018.6
20260504204009 53 156 0.0 0.0 0.00 0.00 0.00 68 1018.6
20260504201010 56 151 0.0 0.0 0.00 0.00 0.00 62 1018.6
20260504200009 57 151 0.0 0.0 0.00 0.00 0.00 59 1018.6
20260504195010 58 151 0.0 0.0 0.00 0.00 0.00 58 1018.6
20260504194007 58 151 0.0 0.0 0.00 0.00 0.00 58 1018.6
20260504192010 59 151 0.0 0.0 0.00 0.00 0.00 57 1018.6
20260504191009 60 151 0.0 0.0 0.00 0.00 0.00 55 1018.3
20260504190010 61 150 0.0 0.9 0.00 0.00 0.00 53 1018.3
20260504185019 62 151 0.0 0.9 0.00 0.00 0.00 52 1018.3
20260504183009 62 159 0.0 0.0 0.00 0.00 0.00 52 1018.2
20260504182009 62 159 0.0 0.0 0.00 0.00 0.00 54 1018.3
20260504181010 62 159 0.0 0.0 0.00 0.00 0.00 54 1018.1
20260504180009 63 159 0.0 0.0 0.00 0.00 0.00 53 1017.9
20260504174013 67 159 0.0 0.0 0.00 0.00 0.00 48 1017.9
20260504173018 70 160 0.0 0.9 0.00 0.00 0.00 39 1018.0
20260504172009 71 161 0.0 2.6 0.00 0.00 0.00 36 1017.9